Weather History for Valparaiso, FL

Change the Weather History Date:

Friday, December 28, 2012

  Actual Average Record
Temperature  
Mean Temperature 51 °F -  
Max Temperature 68 °F 64 °F 77 °F (1949)
Min Temperature 34 °F 41 °F 22 °F (2010)
Degree Days  
Heating Degree Days 14    
Growing Degree Days 1 (Base 50)    
Moisture  
Dew Point 51 °F    
Average Humidity 85    
Maximum Humidity 100    
Minimum Humidity 72    
Precipitation  
Precipitation 0.80 in - - ()
Sea Level Pressure  
Sea Level Pressure 29.91 in    
Wind  
Wind Speed 6 mph (East)    
Max Wind Speed 20 mph    
Max Gust Speed 25 mph    
Visibility 9 miles    
Events Rain    
Averages and records for this station are not official NWS values.
T = Trace of Precipitation, MM = Missing Value Source: NWS Daily Summary

Daily Weather History Graph

Daily Weather History Graph

Search for Another Location

Airport:

Trip Planner

Search our weather history database for the weather conditions in past years. The results will help you decide how hot, cold, wet, or windy it might be!

Date:

Astronomy

Dec. 28, 2012 Rise Set
Actual Time 6:42 AM CST 4:53 PM CST
Civil Twilight 6:15 AM CST 5:20 PM CST
Nautical Twilight 5:45 AM CST 5:50 PM CST
Astronomical Twilight 5:16 AM CST 6:19 PM CST
Moon 5:25 PM CST (12/28) 6:39 AM CST (12/28)
Length of Visible Light 11h 04m
Length of Day
10h 11m
Full, 100% of the Moon is Illuminated
Dec 28
Full
Jan 4
Last Quarter
Jan 11
New
Jan 18
First Quarter
Jan 26
Full

Hourly Weather History & Observations

Time (CST) Temp. Windchill Dew Point Humidity Pressure Visibility Wind Dir Wind Speed Gust Speed Precip Events Conditions
12:55 AM 34.9 °F - 32.9 °F 92% 30.10 in 10.0 mi Calm Calm - N/A   Mostly Cloudy
1:55 AM 36.7 °F 34.1 °F 33.4 °F 88% 30.12 in 10.0 mi North 3.5 mph - N/A   Scattered Clouds
2:55 AM 39.6 °F - 34.2 °F 81% 30.09 in 10.0 mi Calm Calm - N/A   Mostly Cloudy
3:55 AM 39.7 °F 36.5 °F 33.8 °F 79% 30.09 in 10.0 mi ENE 4.6 mph - N/A   Mostly Cloudy
4:55 AM 41.4 °F 38.4 °F 36.3 °F 82% 30.09 in 10.0 mi East 4.6 mph - N/A   Mostly Cloudy
5:55 AM 41.5 °F 37.1 °F 36.9 °F 83% 30.07 in 10.0 mi East 6.9 mph - N/A   Mostly Cloudy
6:55 AM 41.4 °F 36.8 °F 37.0 °F 85% 30.06 in 10.0 mi ENE 6.9 mph - N/A   Mostly Cloudy
7:55 AM 42.8 °F 38.0 °F 38.3 °F 84% 30.04 in 10.0 mi East 8.1 mph - N/A   Overcast
8:55 AM 48.9 °F - 42.4 °F 78% 30.05 in 10.0 mi East 6.9 mph - N/A   Mostly Cloudy
9:55 AM 51.1 °F - 42.8 °F 73% 30.05 in 10.0 mi East 5.8 mph - N/A   Overcast
10:35 AM 53.6 °F - 44.6 °F 72% 30.02 in 10.0 mi ENE 4.6 mph - N/A   Overcast
10:44 AM 55.4 °F - 46.4 °F 72% 30.01 in 10.0 mi NE 4.6 mph - N/A   Overcast
10:55 AM 55.0 °F - 46.6 °F 73% 30.02 in 10.0 mi NE 4.6 mph - N/A   Overcast
11:55 AM 56.1 °F - 48.2 °F 75% 29.98 in 10.0 mi NE 4.6 mph - N/A   Overcast
12:38 PM 57.2 °F - 50.0 °F 77% 29.94 in 10.0 mi Variable 3.5 mph - N/A   Overcast
12:55 PM 57.9 °F - 49.8 °F 74% 29.94 in 10.0 mi ENE 5.8 mph - N/A   Overcast
1:55 PM 57.9 °F - 51.8 °F 80% 29.92 in 10.0 mi East 8.1 mph - N/A   Overcast
2:55 PM 58.1 °F - 52.3 °F 81% 29.91 in 10.0 mi East 6.9 mph - N/A   Overcast
3:11 PM 59.0 °F - 51.8 °F 77% 29.91 in 10.0 mi East 6.9 mph - N/A   Overcast
3:55 PM 58.8 °F - 53.4 °F 82% 29.91 in 10.0 mi East 9.2 mph - N/A   Overcast
4:53 PM 60.8 °F - 55.4 °F 82% 29.88 in 10.0 mi ESE 13.8 mph - N/A Rain Light Rain
4:56 PM 59.9 °F - 55.2 °F 84% 29.89 in 10.0 mi SE 12.7 mph - 0.00 in Rain Light Rain
5:07 PM 60.8 °F - 55.4 °F 82% 29.88 in 10.0 mi SE 13.8 mph - N/A   Overcast
5:55 PM 59.9 °F - 54.9 °F 83% 29.88 in 10.0 mi SE 15.0 mph 21.9 mph 0.00 in   Overcast
6:50 PM 59.0 °F - 55.4 °F 88% 29.84 in 10.0 mi ESE 13.8 mph - N/A Rain Light Rain
6:55 PM 59.5 °F - 54.7 °F 84% 29.85 in 10.0 mi ESE 12.7 mph - 0.00 in Rain Light Rain
7:42 PM 59.0 °F - 55.4 °F 88% 29.81 in 10.0 mi ESE 8.1 mph - N/A   Overcast
7:55 PM 58.6 °F - 55.9 °F 91% 29.82 in 10.0 mi ESE 6.9 mph - 0.00 in   Overcast
8:24 PM 60.8 °F - 57.2 °F 88% 29.81 in 9.0 mi ESE 8.1 mph - N/A Rain Light Rain
8:50 PM 60.8 °F - 59.0 °F 94% 29.79 in 8.0 mi East 9.2 mph 18.4 mph N/A Rain Light Rain
8:55 PM 60.8 °F - 59.0 °F 94% 29.79 in 8.0 mi East 8.1 mph 18.4 mph 0.01 in Rain Light Rain
9:23 PM 60.8 °F - 59.0 °F 94% 29.77 in 10.0 mi ESE 11.5 mph - N/A   Overcast
9:31 PM 60.8 °F - 59.0 °F 94% 29.77 in 9.0 mi ESE 12.7 mph - N/A Rain Light Rain
9:55 PM 62.6 °F - 61.5 °F 96% 29.78 in 5.0 mi ESE 8.1 mph - 0.01 in Rain Light Rain
10:18 PM 66.2 °F - 64.4 °F 94% 29.76 in 2.5 mi SSW 8.1 mph - N/A Rain Rain
10:35 PM 66.2 °F - 66.2 °F 100% 29.75 in 2.5 mi South 19.6 mph 25.3 mph N/A Rain Rain
10:55 PM 66.6 °F - 65.7 °F 97% 29.76 in 2.5 mi SSW 10.4 mph 18.4 mph 0.24 in Rain Rain
11:20 PM 68.0 °F - 66.2 °F 94% 29.76 in 2.0 mi West 8.1 mph 17.3 mph N/A Rain Rain
11:30 PM 68.0 °F - 66.2 °F 94% 29.76 in 5.0 mi WSW 6.9 mph - N/A Rain Light Rain
11:55 PM 67.3 °F - 65.5 °F 94% 29.78 in 10.0 mi Variable 5.8 mph - 0.54 in Rain Light Rain